Theta_e
308 307 308 307 310 310 310 310 313 313 314 315 316 317 318 318 319 318 320 326 328 329 331 333 333 334 335 334 331 326 320 320 322
304 305 307 306 307 308 308 309 310 311 314 312 314 315 315 316 317 316 315 320 325 326 329 331 332 333 333 334 335 331 325 320 320
301 302 305 305 306 307 307 306 307 308 310 311 312 312 313 314 314 315 315 314 321 325 326 328 330 331 332 334 336 334 329 321 323
296 298 300 304 305 306 305 305 305 306 307 308 310 308 309 310 312 314 316 314 314 322 324 326 327 330 332 333 335 337 332 322 333
296 295 297 300 301 302 304 303 303 304 304 304 304 304 306 308 309 312 313 313 314 314 319 322 325 326 331 333 334 336 335 327 331
295 294 294 295 295 298 299 300 302 301 300 298 298 299 300 305 307 309 310 311 312 314 315 318 320 326 328 332 334 335 336 334 329
293 293 293 293 293 293 293 295 296 296 296 297 297 298 299 300 304 306 308 309 310 312 313 316 317 324 328 330 333 335 337 336 330
293 293 293 293 293 293 293 293 293 293 294 295 296 297 298 298 301 304 305 306 307 309 311 312 314 319 327 329 331 333 336 338 330
293 293 293 293 293 293 293 293 293 293 294 295 296 296 297 297 298 300 302 303 303 307 310 311 313 317 322 329 329 332 334 336 333
293 294 294 294 294 294 294 293 293 292 295 295 295 296 296 297 298 298 300 302 302 304 308 310 311 315 321 327 326 329 332 334 333
293 294 294 294 294 294 294 294 293 293 293 294 295 295 296 297 297 298 298 301 301 302 304 308 309 314 320 325 323 324 328 331 332
293 294 294 295 295 295 294 294 294 294 293 294 295 296 295 296 297 297 298 299 301 302 302 302 305 312 323 324 322 322 325 329 330
293 294 295 295 294 294 294 293 293 292 294 294 295 295 295 296 296 297 297 298 300 301 302 301 304 316 321 321 321 321 322 325 331
294 295 294 295 295 294 293 294 293 293 294 295 296 296 296 296 296 297 297 298 299 301 302 301 303 314 318 320 319 320 319 322 324
295 295 295 295 295 294 294 293 294 293 294 295 296 296 296 297 297 298 298 298 299 301 302 301 302 310 315 314 319 320 320 319 320
294 295 294 295 295 293 295 295 293 294 295 296 296 296 297 298 298 298 299 298 300 301 301 301 301 306 313 313 317 320 317 315 315
295 294 295 294 294 295 294 294 294 296 296 295 296 296 297 298 298 298 298 299 300 302 301 301 301 305 311 311 312 317 315 315 314
294 294 294 295 295 295 296 296 297 296 296 296 296 296 297 297 297 299 299 300 301 302 301 302 301 305 309 309 308 313 313 313 313
294 294 294 295 296 296 296 296 296 297 297 297 297 297 297 297 297 298 299 300 301 301 301 302 302 306 308 307 307 307 310 306 307
292 293 293 295 295 296 295 296 296 297 297 296 297 297 296 296 297 297 298 300 301 301 301 302 307 308 309 309 307 306 306 305 305
Wind_Speed
17 17 17 17 18 18 17 17 16 16 17 18 20 22 21 21 21 25 28 24 21 19 18 19 20 19 17 19 21 19 19 18 17
18 18 17 16 18 17 18 18 18 15 17 17 16 19 21 24 25 26 29 29 27 22 22 20 19 20 21 19 23 22 19 18 18
20 18 16 17 18 18 19 18 19 16 18 18 18 23 18 22 26 26 26 31 32 28 26 25 24 22 23 19 22 25 21 19 18
23 20 18 18 19 19 19 19 19 19 18 21 22 24 22 25 23 22 26 26 31 34 31 28 25 25 23 22 23 26 24 20 21
23 23 21 21 21 20 19 19 19 18 19 24 24 24 24 29 29 27 29 29 29 28 30 32 30 27 25 24 23 26 25 23 24
24 25 25 24 25 22 21 21 20 19 22 22 24 24 28 30 27 31 29 30 30 24 25 25 28 33 29 25 23 25 28 26 26
26 26 26 26 25 25 25 25 22 24 23 22 23 25 25 27 30 32 31 32 32 26 24 25 28 35 32 29 23 28 29 28 28
25 25 26 26 26 24 24 26 25 25 25 24 23 23 25 26 30 32 30 34 35 27 24 26 25 34 35 31 28 24 31 38 33
24 25 26 26 26 26 26 25 25 26 24 22 23 24 25 26 27 32 31 29 28 22 23 24 23 23 28 26 30 26 24 31 34
26 25 24 24 25 26 27 27 28 28 23 23 21 25 23 24 26 28 30 30 27 22 21 22 22 23 25 24 26 31 26 23 27
25 24 24 25 26 27 27 28 30 27 23 25 21 22 26 25 24 25 28 31 29 26 24 21 21 20 22 23 22 26 30 23 25
24 24 26 28 30 29 28 27 28 28 25 22 21 25 22 26 25 25 25 29 31 26 26 25 21 21 18 24 22 27 26 22 25
24 26 27 27 28 29 25 25 27 27 22 24 23 25 22 24 24 23 24 25 30 26 25 25 22 22 19 17 21 28 25 24 20
24 26 26 24 26 25 21 21 24 26 22 22 24 22 24 24 22 24 25 23 27 25 22 25 23 22 16 19 21 18 24 23 22
24 23 24 22 22 22 19 21 20 23 23 24 25 23 21 19 17 18 22 22 23 21 19 23 23 20 23 23 19 17 11 14 21
21 23 25 23 21 19 16 20 22 18 19 23 26 25 14 8 13 16 18 18 20 19 17 20 23 21 19 24 15 17 10 7 9
19 21 24 25 22 19 17 17 19 23 22 19 24 14 19 10 19 10 8 10 16 15 15 15 21 21 24 19 19 18 11 11 10
18 21 18 22 20 20 21 20 20 21 19 20 17 8 5 24 15 9 6 3 11 11 11 10 20 20 21 25 22 14 14 11 9
20 19 18 20 19 19 21 19 18 19 23 21 14 11 11 8 11 21 7 5 5 8 9 7 16 19 22 22 22 19 15 12 15
20 21 22 20 18 15 18 20 19 22 17 17 17 14 11 8 9 12 16 15 8 7 8 7 12 18 19 20 20 15 14 12 11
Wind_Direction
353 343 343 337 342 338 332 323 313 313 316 306 291 290 289 278 280 269 267 250 256 255 253 244 239 233 234 244 247 244 242 243 244
344 338 339 336 341 335 328 329 322 304 318 304 291 284 277 270 269 269 265 258 249 256 248 249 248 247 235 246 242 244 241 238 240
339 346 339 342 335 333 325 326 318 307 302 305 304 277 276 277 265 262 264 258 249 249 248 247 245 251 242 239 241 240 240 233 233
336 338 339 339 332 327 321 321 321 319 313 298 292 282 280 276 267 275 271 262 251 248 253 250 249 247 248 242 244 235 236 229 226
337 334 334 337 332 327 322 317 323 314 308 283 271 295 288 269 257 262 262 269 270 252 254 253 248 250 239 243 248 238 234 228 226
334 332 329 327 325 326 319 316 314 313 290 295 292 292 285 268 263 256 262 263 268 274 266 266 261 245 243 238 250 240 233 231 224
333 330 328 327 326 321 317 314 311 308 304 301 293 288 286 271 261 256 252 258 263 272 272 267 264 244 241 238 250 240 235 229 226
335 333 332 332 331 327 321 317 314 309 303 302 301 293 288 282 265 258 260 257 261 271 274 267 267 243 239 241 245 246 236 232 219
339 339 339 338 337 336 331 326 324 316 308 303 304 297 290 286 279 264 259 259 264 277 271 271 267 258 240 235 241 244 244 250 211
344 341 340 340 339 336 332 330 325 324 319 314 309 311 297 289 281 277 260 254 256 269 273 268 269 258 235 231 241 236 250 249 209
342 340 339 335 330 328 325 323 322 319 312 314 302 301 305 297 285 280 269 253 253 255 262 265 267 260 248 230 238 238 244 246 224
337 335 334 331 326 323 323 320 317 318 318 320 319 313 295 300 292 279 277 259 250 252 254 253 258 240 258 224 233 237 239 242 233
336 333 333 336 334 330 327 330 330 325 330 324 316 315 308 302 292 281 278 267 250 247 250 250 244 223 226 220 225 238 239 232 221
337 333 336 339 338 336 328 328 326 330 328 320 314 318 308 303 294 291 279 268 246 242 243 245 238 222 223 221 228 230 234 231 240
341 352 348 344 340 341 339 333 329 327 325 319 323 316 313 302 299 303 281 268 240 231 236 240 234 225 217 221 227 219 215 224 229
355 2 4 359 350 343 342 333 330 343 337 324 328 331 338 323 322 313 293 259 222 222 229 234 230 221 214 209 232 201 198 188 232
5 358 4 3 3 1 4 353 345 337 337 318 327 323 331 322 323 336 314 226 204 217 220 227 224 221 219 218 233 212 146 150 145
3 6 2 2 358 359 359 352 345 336 334 343 312 312 312 321 339 359 61 159 206 206 212 222 215 208 207 218 232 238 197 167 199
3 2 353 358 359 357 360 358 349 347 348 345 349 326 310 327 326 346 76 103 191 197 196 205 207 202 200 204 219 236 244 256 254
358 2 4 360 353 3 1 358 353 351 2 357 354 355 336 349 325 333 358 90 106 176 170 171 190 192 192 200 210 223 229 243 257